Вернуться в каталог

CZ-6A DEB

АктивенPO
NORAD 63390·DEBRIS·🇨🇳 China

Запущен Aug 6, 2024 с Taiyuan Satellite Launch Center

Loading…

Ближайшие Пролёты (ближайшие 24 часа)

TLE

УстаревающийSource: Space-Track

Эпоха: Sep 5, 2026, 07:17 UTC

1 63390U 24140ADM 26248.30400007  .00000610  00000-0  28138-3 0  9990
2 63390  89.0003 266.1569 0051493 293.5343  66.0442 14.19208434106813

Отслеживайте CZ-6A DEB в реальном времени с AllMySat

Download on the App Store